NOS30G BIKF-LIMC

Flight info

Callsign NOS30G
Flight time N/A
Altitude 41000
Route PIXUM1A PIXUM DCT PETUX DCT PODAR DCT BALIX/N0494F410 DCT NINEX DCT GODOS DCT SUTAL DCT GTQ DCT OBORN DCT DEVDI/N0494F390 DCT BASGO/N0504F290 Z424 AKASU/N0432F190 Z424 RIXUV
Aircraft B789/H-SDE1E2E3FGHIJ2J3J4J5M1RWXY/LB1D1

Departure

Time 2026-05-05 16:09
Airport Keflavik International Airport (BIKF)

Arrival

Time N/A
Airport Milan Malpensa International Airport (LIMC)
Time Latitude Longitude Altitude Speed Heading
2026-05-05 15:40 63.99279 -22.62449 154 ft 0 kts
2026-05-05 15:56 63.99264 -22.62451 158 ft 2 kts
2026-05-05 15:56 63.99248 -22.62454 164 ft 2 kts
2026-05-05 15:56 63.99231 -22.62459 170 ft 2 kts
2026-05-05 15:57 63.99215 -22.62467 171 ft 2 kts 18°
2026-05-05 15:57 63.99201 -22.62484 172 ft 2 kts 50°
2026-05-05 15:57 63.99197 -22.62503 169 ft 1 kts 89°
2026-05-05 15:57 63.99197 -22.62504 169 ft 1 kts 90°
2026-05-05 15:58 63.99193 -22.62473 172 ft 2 kts 116°
2026-05-05 15:58 63.99185 -22.62441 169 ft 2 kts 122°
2026-05-05 15:58 63.99178 -22.62407 167 ft 2 kts 107°
2026-05-05 15:58 63.99177 -22.62389 167 ft 0 kts 99°
2026-05-05 15:59 63.99173 -22.62332 170 ft 13 kts 95°
2026-05-05 16:00 63.99172 -22.62003 170 ft 27 kts 90°
2026-05-05 16:00 63.99172 -22.61555 172 ft 26 kts 90°
2026-05-05 16:00 63.99173 -22.61160 173 ft 14 kts 90°
2026-05-05 16:00 63.99160 -22.60954 174 ft 9 kts 129°
2026-05-05 16:01 63.99118 -22.60939 174 ft 13 kts 182°
2026-05-05 16:01 63.99093 -22.60941 172 ft 0 kts 181°
2026-05-05 16:01 63.99090 -22.60941 172 ft 4 kts 181°
2026-05-05 16:02 63.99009 -22.60947 171 ft 20 kts 182°
2026-05-05 16:02 63.98843 -22.60948 167 ft 25 kts 179°
2026-05-05 16:02 63.98671 -22.60945 163 ft 25 kts 180°
2026-05-05 16:02 63.98502 -22.60944 160 ft 24 kts 180°
2026-05-05 16:03 63.98342 -22.60938 157 ft 22 kts 180°
2026-05-05 16:03 63.98193 -22.60945 156 ft 21 kts 181°
2026-05-05 16:03 63.98056 -22.60949 155 ft 20 kts 180°
2026-05-05 16:03 63.97902 -22.60948 154 ft 24 kts 180°
2026-05-05 16:04 63.97719 -22.60950 153 ft 28 kts 180°
2026-05-05 16:04 63.97512 -22.60949 151 ft 31 kts 180°
2026-05-05 16:04 63.97294 -22.60949 150 ft 31 kts 180°
2026-05-05 16:04 63.97089 -22.60951 149 ft 28 kts 180°
2026-05-05 16:05 63.96899 -22.60946 148 ft 26 kts 179°
2026-05-05 16:05 63.96724 -22.60941 147 ft 24 kts 180°
2026-05-05 16:05 63.96565 -22.60943 146 ft 21 kts 180°
2026-05-05 16:05 63.96474 -22.60893 145 ft 13 kts 128°
2026-05-05 16:06 63.96463 -22.60808 145 ft 0 kts 91°
2026-05-05 16:07 63.96463 -22.60806 145 ft 2 kts 91°
2026-05-05 16:07 63.96461 -22.60662 145 ft 11 kts 91°
2026-05-05 16:07 63.96467 -22.60534 144 ft 7 kts 64°
2026-05-05 16:07 63.96486 -22.60494 145 ft 1 kts 20°
2026-05-05 16:08 63.96495 -22.60499 145 ft 3 kts 343°
2026-05-05 16:08 63.96567 -22.60535 145 ft 21 kts 355°
2026-05-05 16:08 63.96941 -22.60542 149 ft 96 kts 359°
2026-05-05 16:08 63.97854 -22.60515 396 ft 147 kts
2026-05-05 16:09 63.98863 -22.60459 1411 ft 148 kts
2026-05-05 16:09 63.99927 -22.60493 2235 ft 161 kts
2026-05-05 16:09 64.01136 -22.60561 2821 ft 187 kts
2026-05-05 16:09 64.02487 -22.60544 3688 ft 197 kts
2026-05-05 16:10 64.03856 -22.60507 4820 ft 199 kts
2026-05-05 16:10 64.05129 -22.59362 5749 ft 202 kts 37°
2026-05-05 16:10 64.06068 -22.56924 6533 ft 218 kts 65°
2026-05-05 16:10 64.06357 -22.53346 7122 ft 245 kts 88°
2026-05-05 16:11 64.06344 -22.49292 7928 ft 259 kts 89°
2026-05-05 16:11 64.03833 -22.38349 10490 ft 303 kts 151°
2026-05-05 16:12 64.01894 -22.35934 10833 ft 330 kts 152°
2026-05-05 16:12 63.97538 -22.30540 11652 ft 375 kts 152°
2026-05-05 16:13 63.90607 -22.21814 14322 ft 391 kts 155°
2026-05-05 16:13 63.88204 -22.18814 15200 ft 393 kts 155°
2026-05-05 16:13 63.85784 -22.15789 15929 ft 401 kts 155°
2026-05-05 16:14 63.80849 -22.09482 17330 ft 418 kts 149°
2026-05-05 16:14 63.76279 -22.00906 18640 ft 432 kts 146°
2026-05-05 16:15 63.71565 -21.92176 19822 ft 444 kts 145°
2026-05-05 16:15 63.66760 -21.83170 20972 ft 454 kts 146°
2026-05-05 16:16 63.61812 -21.74030 21959 ft 466 kts 146°
2026-05-05 16:16 63.56893 -21.64410 22913 ft 483 kts 136°